Location: C.E.K. Mees Observatory
(42.7003°N, 77.4088°W)
Time: 10:20:22
(UTC-05:00)

Envisat - Pass Details

Date: 23 November 2019
Orbit: 764 x 766 km, 98.1° (Epoch: 09 December)

Event Time Altitude Azimuth Distance (km) Brightness Sun altitude
Rises 18:06:34 0° 166° (SSE) 3,216 6.2 -15.6°
Reaches altitude 10° 18:08:52 10° 166° (SSE) 2,294 5.5 -16.0°
Maximum altitude 18:13:56 87° 256° (WSW) 772 3.0 -16.9°
Drops below altitude 10° 18:19:02 10° 346° (NNW) 2,310 5.5 -17.8°
Sets 18:21:21 0° 347° (NNW) 3,240 6.3 -18.2°
